FW5816 Weather Reports


time (UTC)temp
F
wind
direction
speed
knots
gust
knots
rain 1hr
in
rain 24hr
in
rain mn
in
humidity
%
barometer
mb
20260905224540 93 67 0.0 3.5 0.00 0.52 0.52 59 1011.4
20260905224015 92 49 0.0 4.3 0.00 0.52 0.52 60 1011.3
20260905223519 92 8 1.7 4.3 0.00 0.52 0.52 59 1011.1
20260905223040 93 40 1.7 6.1 0.00 0.52 0.52 58 1011.1
20260905222520 93 358 2.6 6.1 0.00 0.52 0.52 57 1011.0
20260905222019 94 41 1.7 6.1 0.00 0.52 0.52 56 1011.2
20260905221538 95 302 1.7 6.1 0.00 0.52 0.52 55 1011.3
20260905221021 95 13 0.9 2.6 0.00 0.52 0.52 54 1011.1
20260905220522 96 46 0.9 2.6 0.00 0.52 0.52 53 1011.3
20260905220035 96 0 0.0 2.6 0.00 0.52 0.52 54 1011.1
20260905215519 95 357 0.9 4.3 0.00 0.52 0.52 54 1011.2
20260905215016 95 283 0.9 4.3 0.00 0.52 0.52 55 1011.2
20260905214538 95 254 0.9 3.5 0.00 0.52 0.52 54 1011.3
20260905214020 95 276 0.9 3.5 0.00 0.52 0.52 53 1011.4
20260905213518 97 30 0.0 3.5 0.00 0.52 0.52 52 1011.4
20260905213043 96 44 0.0 3.5 0.00 0.52 0.52 53 1011.5
20260905212519 96 14 0.9 3.5 0.00 0.52 0.52 53 1011.4
20260905212023 96 27 0.9 3.5 0.00 0.52 0.52 53 1011.4
20260905211538 96 250 0.9 3.5 0.00 0.52 0.52 54 1011.4
20260905211019 95 279 0.0 3.5 0.00 0.52 0.52 53 1011.4
20260905210519 96 316 1.7 3.5 0.00 0.52 0.52 54 1011.6
20260905210044 96 124 0.0 4.3 0.00 0.52 0.52 53 1011.5
20260905205517 95 124 0.9 6.1 0.00 0.52 0.52 54 1011.6
20260905205020 94 0 0.9 6.1 0.00 0.52 0.52 56 1011.6
20260905204537 94 269 2.6 7.0 0.00 0.52 0.52 56 1011.7
20260905204019 94 334 1.7 7.0 0.00 0.52 0.52 54 1011.9
20260905203519 94 257 1.7 5.2 0.00 0.52 0.52 55 1011.8
20260905203038 95 160 0.9 5.2 0.00 0.52 0.52 54 1011.9
20260905202521 95 286 0.9 5.2 0.00 0.52 0.52 54 1011.9
20260905202020 94 292 0.9 5.2 0.00 0.52 0.52 54 1012.0
20260905201540 94 288 2.6 5.2 0.00 0.52 0.52 55 1012.1
20260905201017 94 304 1.7 6.1 0.00 0.52 0.52 55 1012.2
20260905200517 94 319 2.6 6.1 0.00 0.52 0.52 55 1012.2
20260905200044 94 327 0.0 4.3 0.00 0.52 0.52 55 1012.2
20260905195517 94 276 0.9 6.1 0.00 0.52 0.52 55 1012.4
20260905195020 93 3 2.6 7.0 0.00 0.52 0.52 55 1012.1
20260905194539 93 0 0.0 7.0 0.00 0.52 0.52 55 1012.3
20260905194018 94 64 3.5 7.0 0.00 0.52 0.52 53 1012.4
20260905193516 93 238 0.9 5.2 0.00 0.52 0.52 55 1012.6
20260905193035 93 345 2.6 5.2 0.00 0.52 0.52 54 1012.6
20260905192520 94 11 2.6 5.2 0.00 0.52 0.52 55 1012.7
20260905192024 93 347 1.7 5.2 0.00 0.52 0.52 54 1012.7
20260905191539 94 315 0.9 3.5 0.00 0.52 0.52 54 1012.8
20260905191020 93 0 0.0 3.5 0.00 0.52 0.52 54 1012.9
20260905190520 94 314 0.0 5.2 0.00 0.52 0.52 55 1012.9
20260905190034 93 0 2.6 5.2 0.00 0.52 0.52 54 1013.0
20260905185518 94 302 0.0 6.1 0.00 0.52 0.52 54 1013.0
20260905185019 93 264 1.7 6.1 0.00 0.52 0.52 54 1013.1
20260905184558 93 286 1.7 4.3 0.00 0.52 0.52 54 1013.2
20260905184025 93 172 1.7 4.3 0.00 0.52 0.52 52 1013.2
20260905183524 94 277 0.9 4.3 0.00 0.52 0.52 53 1013.3
20260905183041 93 108 1.7 4.3 0.00 0.52 0.52 54 1013.3
20260905182520 94 228 1.7 4.3 0.00 0.52 0.52 52 1013.4
20260905182020 94 15 0.9 3.5 0.00 0.52 0.52 54 1013.5
20260905181538 93 128 0.9 3.5 0.00 0.52 0.52 55 1013.6
20260905181017 93 205 0.9 3.5 0.00 0.52 0.52 54 1013.7
20260905180518 93 74 0.9 4.3 0.00 0.52 0.52 54 1013.6
20260905180038 93 254 0.0 4.3 0.00 0.52 0.52 57 1013.7
20260905175518 92 285 1.7 4.3 0.00 0.52 0.52 56 1013.9
20260905175016 92 56 1.7 4.3 0.00 0.52 0.52 55 1013.8
20260905174545 93 137 0.9 4.3 0.00 0.52 0.52 54 1013.8
20260905174020 93 134 1.7 4.3 0.00 0.52 0.52 55 1014.0
20260905173518 93 122 0.9 5.2 0.00 0.52 0.52 54 1013.9
20260905173036 92 127 1.7 5.2 0.00 0.52 0.52 56 1014.0
20260905172521 92 140 2.6 5.2 0.00 0.52 0.52 55 1014.1
20260905172020 91 51 0.9 4.3 0.00 0.52 0.52 56 1014.1
20260905171539 91 67 0.9 5.2 0.00 0.52 0.52 57 1014.1
20260905171022 91 126 1.7 7.0 0.00 0.52 0.52 56 1014.1
20260905170519 90 136 2.6 7.0 0.00 0.52 0.52 56 1014.2
20260905170039 90 226 1.7 6.1 0.00 0.52 0.52 56 1014.2
20260905165518 91 119 1.7 6.1 0.00 0.52 0.52 58 1014.3
20260905165018 90 103 1.7 6.1 0.00 0.52 0.52 57 1014.5
20260905164537 89 139 0.9 5.2 0.00 0.52 0.52 58 1014.5
20260905164018 90 139 1.7 5.2 0.00 0.52 0.52 58 1014.7
20260905163518 89 133 0.9 5.2 0.00 0.52 0.52 57 1014.8
20260905163047 89 140 0.9 4.3 0.00 0.52 0.52 59 1014.9
20260905162520 88 0 0.0 4.3 0.00 0.52 0.52 62 1014.9
20260905162019 88 152 1.7 4.3 0.00 0.52 0.52 61 1014.9
20260905161536 88 153 1.7 4.3 0.00 0.52 0.52 60 1014.7
20260905161020 87 46 1.7 6.1 0.00 0.52 0.52 63 1014.6
20260905160520 87 134 1.7 6.1 0.00 0.52 0.52 65 1014.6
20260905160048 87 182 1.7 4.3 0.00 0.52 0.52 65 1014.8
20260905155517 87 128 0.9 5.2 0.00 0.52 0.52 63 1014.8
20260905155016 86 95 1.7 7.0 0.00 0.52 0.52 65 1014.9
20260905154547 85 58 2.6 7.0 0.00 0.52 0.52 66 1014.9
20260905154018 85 174 2.6 5.2 0.00 0.52 0.52 67 1014.9
20260905153518 85 128 2.6 6.1 0.00 0.52 0.52 67 1014.9
20260905153038 85 131 1.7 6.1 0.00 0.52 0.52 67 1014.9
20260905152518 85 148 0.9 5.2 0.00 0.52 0.52 68 1014.8
20260905152020 84 136 0.9 6.1 0.00 0.52 0.52 71 1014.8
20260905151538 83 57 1.7 6.1 0.00 0.52 0.52 71 1014.9
20260905151022 83 63 2.6 6.1 0.00 0.52 0.52 70 1014.8
20260905150519 83 135 1.7 6.1 0.00 0.52 0.52 72 1014.9
20260905150037 82 141 3.5 6.1 0.00 0.52 0.52 71 1014.9
20260905145519 82 108 1.7 7.0 0.00 0.52 0.52 74 1014.9
20260905145021 81 67 2.6 7.8 0.00 0.52 0.52 72 1015.1
20260905144547 81 41 2.6 7.8 0.00 0.52 0.52 74 1015.1
20260905144019 81 27 3.5 7.8 0.00 0.52 0.52 73 1015.2
20260905143519 81 82 1.7 5.2 0.00 0.52 0.52 74 1015.2
20260905143038 80 163 0.9 6.1 0.00 0.52 0.52 77 1015.4
20260905142519 80 120 1.7 7.8 0.00 0.52 0.52 76 1015.4
20260905142022 79 83 3.5 8.7 0.00 0.52 0.52 77 1015.4
20260905141600 79 145 3.5 9.6 0.00 0.52 0.52 77 1015.4
20260905141018 79 120 4.3 9.6 0.00 0.52 0.52 76 1015.5
20260905140517 79 103 3.5 8.7 0.00 0.52 0.52 79 1015.6
20260905140043 78 82 2.6 8.7 0.00 0.52 0.52 79 1015.7
20260905135519 77 53 4.3 8.7 0.00 0.52 0.52 80 1015.6
20260905135019 77 97 4.3 9.6 0.00 0.52 0.52 80 1015.6
20260905134533 77 66 3.5 11.3 0.00 0.52 0.52 80 1015.6
20260905134017 76 107 4.3 13.9 0.00 0.52 0.52 83 1015.6
20260905133519 76 74 3.5 13.9 0.00 0.52 0.52 83 1015.6
20260905133051 75 94 4.3 9.6 0.00 0.52 0.52 84 1015.9
20260905132520 75 117 3.5 9.6 0.00 0.52 0.52 85 1016.0
20260905132020 75 83 3.5 9.6 0.00 0.52 0.52 86 1016.2
20260905131552 75 77 3.5 9.6 0.00 0.52 0.52 88 1016.1
20260905131021 75 60 2.6 9.6 0.00 0.52 0.52 90 1016.2
20260905130519 74 49 1.7 7.8 0.00 0.52 0.52 90 1016.5
20260905130037 74 41 2.6 7.8 0.00 0.52 0.52 91 1016.3
20260905125517 74 56 2.6 10.4 0.00 0.52 0.52 92 1016.1
20260905125020 73 44 3.5 10.4 0.00 0.52 0.52 92 1016.1
20260905124536 73 86 3.5 11.3 0.01 0.52 0.52 92 1016.0
20260905124019 73 54 5.2 13.0 0.10 0.52 0.52 92 1015.8
20260905123516 73 46 7.0 13.0 0.33 0.52 0.52 91 1015.8
20260905123037 73 77 5.2 9.6 0.47 0.52 0.52 92 1015.8
20260905122520 73 343 3.5 7.8 0.47 0.52 0.52 93 1015.8
20260905122019 73 27 3.5 7.8 0.47 0.52 0.52 94 1015.7
20260905121535 73 68 2.6 7.8 0.47 0.52 0.52 95 1015.6
20260905121023 73 46 0.9 5.2 0.47 0.52 0.52 96 1015.3
20260905120524 74 0 0.0 8.7 0.47 0.52 0.52 95 1014.4
20260905120038 74 39 0.9 8.7 0.47 0.52 0.52 94 1014.2
20260905115518 74 281 3.5 7.0 0.47 0.52 0.52 94 1014.1
20260905115020 74 0 0.9 7.0 0.47 0.52 0.52 92 1013.9
20260905114605 74 67 3.5 10.4 0.46 0.52 0.52 94 1014.1
20260905114019 73 46 6.1 10.4 0.33 0.39 0.39 93 1014.8
20260905113519 74 34 3.5 7.0 0.11 0.17 0.17 93 1015.0
20260905113037 74 276 0.9 5.2 0.00 0.06 0.06 92 1015.0
20260905112516 74 39 0.9 7.8 0.00 0.06 0.06 92 1014.3
20260905112020 74 131 0.9 7.8 0.00 0.06 0.06 91 1014.1
20260905111538 75 70 2.6 7.8 0.00 0.06 0.06 91 1014.3
20260905111018 75 70 1.7 7.0 0.00 0.06 0.06 91 1014.4
20260905110517 75 131 1.7 7.0 0.00 0.06 0.06 91 1014.4
20260905110034 75 75 2.6 7.8 0.00 0.06 0.06 91 1014.2
20260905105520 76 46 1.7 7.8 0.00 0.06 0.06 91 1014.4
20260905105019 76 155 3.5 7.0 0.00 0.06 0.06 91 1014.1
20260905104534 76 80 0.9 2.6 0.00 0.06 0.06 92 1014.0
20260905104018 76 65 0.9 4.3 0.00 0.06 0.06 93 1014.0
20260905103519 76 51 0.9 4.3 0.00 0.06 0.06 93 1014.0
20260905103038 75 27 2.6 4.3 0.00 0.06 0.06 93 1014.1
20260905102519 75 0 0.0 2.6 0.00 0.06 0.06 94 1013.6
20260905102019 75 27 0.0 5.2 0.00 0.06 0.06 93 1013.7
20260905101535 75 360 0.9 5.2 0.00 0.06 0.06 93 1013.4
20260905101018 75 43 1.7 5.2 0.01 0.06 0.06 93 1013.6
20260905100519 75 0 0.0 0.0 0.04 0.06 0.06 92 1013.4
20260905100051 75 0 0.0 1.7 0.04 0.06 0.06 91 1013.4
20260905095520 76 0 0.0 1.7 0.04 0.06 0.06 91 1013.4
20260905095020 76 0 0.0 2.6 0.04 0.06 0.06 90 1013.4
20260905094535 76 139 0.9 2.6 0.04 0.06 0.06 90 1013.5
20260905094019 76 140 0.9 2.6 0.06 0.06 0.06 90 1013.5
20260905093519 76 115 0.0 1.7 0.06 0.06 0.06 92 1013.5
20260905093036 76 0 0.0 2.6 0.06 0.06 0.06 92 1013.4
20260905092523 76 0 0.0 4.3 0.06 0.06 0.06 92 1013.5
20260905092022 77 0 0.9 5.2 0.06 0.06 0.06 92 1013.3
20260905091547 77 141 0.9 5.2 0.06 0.06 0.06 91 1013.4
20260905091020 77 199 2.6 5.2 0.05 0.05 0.05 92 1013.5
20260905090518 77 236 1.7 5.2 0.02 0.02 0.02 92 1013.6
20260905090035 78 323 0.0 0.9 0.02 0.02 0.02 90 1013.2
20260905085519 78 0 0.0 5.2 0.02 0.02 0.02 90 1013.2
20260905085021 78 323 0.0 5.2 0.02 0.02 0.02 89 1013.2
20260905084538 79 348 2.6 5.2 0.01 0.01 0.01 88 1013.2
20260905084020 79 0 0.9 4.3 0.00 0.00 0.00 89 1013.3
20260905083520 78 257 1.7 4.3 0.00 0.00 0.00 89 1013.3
20260905083034 78 0 0.0 0.9 0.00 0.00 0.00 89 1012.8
20260905082519 78 0 0.0 0.9 0.00 0.00 0.00 89 1012.9
20260905082019 78 0 0.0 1.7 0.00 0.00 0.00 90 1013.1
20260905081535 78 272 0.0 1.7 0.00 0.00 0.00 90 1013.2
20260905081019 78 27 0.0 4.3 0.00 0.00 0.00 90 1013.0
20260905080516 77 0 1.7 4.3 0.00 0.00 0.00 91 1013.0
20260905080039 77 0 0.0 0.0 0.00 0.00 0.00 91 1013.0
20260905075516 77 0 0.0 0.0 0.00 0.00 0.00 91 1012.7
20260905075018 77 0 0.0 0.0 0.00 0.00 0.00 91 1012.7
20260905074552 78 0 0.0 0.0 0.00 0.00 0.00 91 1013.0
20260905074022 78 0 0.0 0.0 0.00 0.00 0.00 90 1013.1
20260905073520 78 0 0.0 0.0 0.00 0.00 0.00 90 1013.1
20260905073056 78 0 0.0 0.0 0.00 0.00 0.00 91 1013.1
20260905072520 78 0 0.0 0.0 0.00 0.00 0.00 91 1013.3
20260905072019 78 0 0.0 0.0 0.00 0.00 0.00 91 1013.3
20260905071536 78 0 0.0 0.0 0.00 0.00 0.00 91 1013.4
20260905071017 78 0 0.0 0.0 0.00 0.00 0.00 90 1013.3
20260905070518 78 0 0.0 0.0 0.00 0.00 0.00 90 1013.3
20260905070040 78 0 0.0 0.0 0.00 0.00 0.00 90 1013.3
20260905065516 78 0 0.0 0.0 0.00 0.00 0.00 90 1013.5
20260905065024 78 0 0.0 0.0 0.00 0.00 0.00 89 1013.4
20260905064536 79 0 0.0 0.0 0.00 0.00 0.00 89 1013.4
20260905064020 79 0 0.0 0.0 0.00 0.00 0.00 88 1013.5
20260905063517 79 0 0.0 0.0 0.00 0.00 0.00 88 1013.5
20260905063040 79 0 0.0 0.0 0.00 0.00 0.00 88 1013.7
20260905062519 79 0 0.0 0.0 0.00 0.00 0.00 87 1013.7
20260905062021 79 0 0.0 0.0 0.00 0.00 0.00 87 1013.7
20260905061537 79 0 0.0 0.0 0.00 0.00 0.00 87 1013.8
20260905061019 79 0 0.0 0.0 0.00 0.00 0.00 87 1013.8
20260905060519 79 0 0.0 0.0 0.00 0.00 0.00 87 1013.8
20260905060035 80 0 0.0 0.0 0.00 0.00 0.00 87 1013.9
20260905055517 80 0 0.0 0.0 0.00 0.00 0.00 86 1014.0
20260905055021 80 0 0.0 0.0 0.00 0.00 0.00 86 1014.0
20260905054541 80 0 0.0 0.0 0.00 0.00 0.00 86 1013.9
20260905054020 80 0 0.0 0.0 0.00 0.00 0.00 86 1013.9
20260905053518 80 0 0.0 0.0 0.00 0.00 0.00 86 1014.0
20260905053037 80 0 0.0 0.0 0.00 0.00 0.00 85 1014.0
20260905052517 80 0 0.0 0.0 0.00 0.00 0.00 85 1014.0
20260905052020 80 0 0.0 0.0 0.00 0.00 0.00 85 1013.9
20260905051535 80 0 0.0 0.0 0.00 0.00 0.00 85 1014.0
20260905051018 80 0 0.0 0.0 0.00 0.00 0.00 85 1014.0
20260905050521 80 0 0.0 0.0 0.00 0.00 0.00 85 1014.0
20260905050040 80 0 0.0 0.0 0.00 0.00 0.00 86 1014.0
20260905045523 80 0 0.0 0.0 0.00 0.00 0.00 86 1014.0
20260905045018 80 0 0.0 0.0 0.00 0.00 0.00 86 1014.0
20260905044551 80 0 0.0 0.0 0.00 0.00 0.00 86 1014.2
20260905044021 81 0 0.0 0.0 0.00 0.00 0.00 86 1014.2
20260905043520 81 0 0.0 0.0 0.00 0.00 0.00 85 1014.2
20260905043037 81 0 0.0 0.0 0.00 0.00 0.00 84 1014.2
20260905042517 81 0 0.0 0.0 0.00 0.00 0.00 84 1014.2
20260905042020 81 0 0.0 0.0 0.00 0.00 0.00 84 1014.4
20260905041535 81 0 0.0 0.9 0.00 0.00 0.00 84 1014.3
20260905041019 82 0 0.0 1.7 0.00 0.00 0.00 84 1014.3
20260905040517 82 72 0.0 1.7 0.00 0.00 0.00 83 1014.3
20260905040046 82 281 0.0 0.0 0.00 0.00 0.00 82 1014.2
20260905035520 82 0 0.0 0.0 0.00 0.00 0.00 82 1014.2
20260905035016 82 0 0.0 0.0 0.00 0.00 0.00 81 1014.2
20260905034556 82 0 0.0 0.0 0.00 0.00 0.00 81 1014.2
20260905034020 82 0 0.0 0.9 0.00 0.00 0.00 81 1014.3
20260905033517 82 0 0.0 0.9 0.00 0.00 0.00 81 1014.3
20260905033056 82 276 0.0 0.9 0.00 0.00 0.00 81 1014.2
20260905032520 83 0 0.0 0.9 0.00 0.00 0.00 80 1014.3
20260905032020 83 0 0.0 0.9 0.00 0.00 0.00 80 1014.2
20260905031538 83 0 0.0 0.0 0.00 0.00 0.00 81 1014.3
20260905031020 83 0 0.0 0.0 0.00 0.00 0.00 81 1014.3
20260905030521 83 0 0.0 0.9 0.00 0.00 0.00 80 1014.4
20260905030037 83 0 0.0 0.9 0.00 0.00 0.00 81 1014.4
20260905025522 84 0 0.0 0.0 0.00 0.00 0.00 81 1014.4
20260905025022 84 0 0.0 0.0 0.00 0.00 0.00 81 1014.3
20260905024538 84 0 0.0 0.0 0.00 0.00 0.00 81 1014.3
20260905024024 84 0 0.0 0.0 0.00 0.00 0.00 80 1014.4
20260905023517 84 0 0.0 0.9 0.00 0.00 0.00 80 1014.3
20260905023106 84 0 0.0 0.9 0.00 0.00 0.00 79 1014.2
20260905022515 85 0 0.0 0.9 0.00 0.00 0.00 79 1014.2
20260905022020 85 278 0.0 0.0 0.00 0.00 0.00 80 1014.2
20260905021538 84 0 0.0 0.9 0.00 0.00 0.00 79 1014.1
20260905021017 85 0 0.0 0.9 0.00 0.00 0.00 79 1014.1
20260905020523 85 278 0.0 0.9 0.00 0.00 0.00 78 1014.2
20260905020037 85 0 0.0 0.9 0.00 0.00 0.00 77 1014.1
20260905015519 85 0 0.0 0.0 0.00 0.00 0.00 77 1014.2
20260905015022 85 0 0.0 0.0 0.00 0.00 0.00 76 1014.3
20260905014537 85 0 0.0 0.0 0.00 0.00 0.00 77 1014.1
20260905014020 86 0 0.0 0.0 0.00 0.00 0.00 76 1014.0
20260905013520 86 0 0.0 0.9 0.00 0.00 0.00 76 1014.0
20260905013035 86 0 0.0 0.9 0.00 0.00 0.00 75 1013.9
20260905012520 86 0 0.0 0.9 0.00 0.00 0.00 75 1013.8
20260905012020 87 0 0.0 0.0 0.00 0.00 0.00 74 1013.8
20260905011548 87 0 0.0 0.0 0.00 0.00 0.00 76 1013.7
20260905011020 87 0 0.0 0.0 0.00 0.00 0.00 75 1013.7
20260905010521 87 147 0.0 0.9 0.00 0.00 0.00 72 1013.6
20260905010041 87 0 0.0 0.9 0.00 0.00 0.00 71 1013.5
20260905005519 87 147 0.0 0.9 0.00 0.00 0.00 72 1013.4
20260905005019 88 0 0.0 0.0 0.00 0.00 0.00 73 1013.4
20260905004539 88 34 0.0 0.0 0.00 0.00 0.00 74 1013.4
20260905004018 89 0 0.0 0.9 0.00 0.00 0.00 73 1013.4
20260905003522 89 0 0.0 0.9 0.00 0.00 0.00 72 1013.3
20260905003039 90 0 0.0 0.9 0.00 0.00 0.00 71 1013.3
20260905002518 91 0 0.0 0.0 0.00 0.00 0.00 67 1013.3
20260905002018 92 0 0.0 0.0 0.00 0.00 0.00 66 1013.2
20260905001537 92 0 0.0 0.0 0.00 0.00 0.00 65 1013.3
20260905001020 93 0 0.0 0.0 0.00 0.00 0.00 64 1013.2
20260905000521 94 0 0.0 0.0 0.00 0.00 0.00 64 1013.2
20260905000042 95 0 0.0 0.9 0.00 0.00 0.00 62 1013.1
20260904235517 96 0 0.0 0.9 0.00 0.00 0.00 60 1013.2
20260904235018 96 0 0.0 0.9 0.00 0.00 0.00 59 1013.1
20260904234537 97 0 0.0 0.9 0.00 0.00 0.00 58 1013.2
20260904234019 98 0 0.0 0.0 0.00 0.00 0.00 55 1013.2
20260904233518 97 0 0.0 0.9 0.00 0.00 0.00 55 1013.3
20260904233035 97 0 0.0 0.9 0.00 0.00 0.00 55 1013.2
20260904232517 96 0 0.0 1.7 0.00 0.00 0.00 56 1013.2
20260904232018 96 0 0.0 2.6 0.00 0.00 0.00 56 1013.2
20260904231537 95 0 0.9 2.6 0.00 0.00 0.00 57 1013.2
20260904231023 96 6 1.7 2.6 0.00 0.00 0.00 55 1013.3
20260904230520 96 35 1.7 3.5 0.00 0.00 0.00 55 1013.3
20260904230036 96 53 1.7 3.5 0.00 0.00 0.00 54 1013.4
20260904225519 98 47 1.7 2.6 0.00 0.00 0.00 51 1013.5
20260904225018 99 43 0.0 0.9 0.00 0.00 0.00 50 1013.5